Location: Newark
(51.0089°N, 21.5817°E)
Time: 20:43:09
(UTC+00:00)

XW-2F - Pass Details

Date: 23 February 2020
Orbit: 503 x 521 km, 97.5° (Epoch: 09 April)

Event Time Altitude Azimuth Distance (km) Brightness Sun altitude
Rises 17:00:05 0° 214° (SW) 2,594 ? -9.7°
Reaches altitude 10° 17:03:13 10° 244° (WSW) 1,717 ? -10.2°
Maximum altitude 17:04:55 13° 272° (W) 1,555 ? -10.4°
Drops below altitude 10° 17:06:37 10° 299° (WNW) 1,725 ? -10.7°
Sets 17:09:47 0° 329° (NNW) 2,620 ? -11.2°
